Tracking 31011 objects as of 11-Jul-2025
HD Live streaming from Space Station
objects crossing your sky now

ONEWEB-0596

Track ONEWEB-0596 now!
10-day predictions
ONEWEB-0596 is classified as:


NORAD ID: 54662
Int'l Code: 2022-166W
Perigee: 1,183.5 km
Apogee: 1,186.3 km
Inclination: 87.9 °
Period: 108.9 minutes
Semi major axis: 7555 km
RCS: Unknown
Launch date: December 8, 2022
Source: United Kingdom (UK)
Launch site: AIR FORCE EASTERN TEST RANGE (AFETR)
Your satellite tracking list
Your tracking list is empty




NASA's NSSDC Master Catalog

Two Line Element Set (TLE):
1 54662U 22166W   25192.59590527  .00000051  00000-0  93157-4 0  9996
2 54662  87.9281 311.9273 0001892  98.1413 261.9935 13.21824478126545
Source of the keplerian elements: AFSPC